COSMOS 249 DEB, 3506

Orbit data source: Space-Track

COSMOS 249 DEB, 3506 is space debris in LEO originally from a launch on Sun, 20 Oct 1968 UTC launched from the Tyuratam Missile And Space Complex (TTMTR). Debris objects in space refer to the collection of defunct objects orbiting the Earth. Examples of debris include non-operational satellites, rocket bodies, and fragments generated from explosions, collisions, or faulty payload assembly.

Loading next visibility...
Identifier
3506, 1968-091C
Orbit
LEO
Country
Flag of CISCIS
Related business
Manufacturer
Unknown
Mission
Spacecraft
Bus & Motor
Unknown
Mass
Unknown
Launch date (UTC)
1968-10-20 (58 years ago)
Launch vehicle
Unknown
Launch site
Tyuratam Missile And Space Complex (TTMTR)
Object type
Payload
Rocket body
Debris
Shape & HBR
Unknown shape, 0.6 m
Radar Cross Section
Medium (>0.1 m² and <1 m²)

Expand to show TLE details & history
Last TLE update: 3 hours ago

TLE from 3 hours ago
0 COSMOS 249 DEB
1  3506U 68091C   26129.85028994 -.00000047  00000-0  26029-4 0  9998
2  3506  62.3731 353.9064 0940903 256.4484  93.0120 12.91108894701530
Epoch: 2026-05-09T20:24Z
TLE epoch observation values (Epoch: 2026-05-09T20:24:25.050Z)
Latitude
-0.00002°
Longitude
-179.8598°
Altitude
1,403.585 km
Speed
7.11 km/s
True Right ascension
23h 35m 37s
True Declination
0° 00' 00"
Sunlit
Object was in daylight at epoch
Visualization orbit readout
Latitude
Unknown
Longitude
Unknown
Altitude
Unknown
Speed
Unknown
Apparent Right ascension
Unknown
Apparent Declination
Unknown
Sunlit
N/A
Visualization observer readout
Local Sidereal Time
07:54:28
Azimuth
Unknown
Elevation
Unknown
Doppler factor
Unknown
Orbital elements
Apogee altitude
2,018.17 km
Perigee altitude
574.028 km
Semi-major axis
7,674.236 km
Eccentricity
0.09409
Inclination
62.3731°
RAAN
353.9064°
Arg. of periapsis
256.4484°
True anomaly
103.6515°
Mean anomaly
93.012°
Eccentric anomaly
98.34589°
Mean motion
3.22842 °/min
Orbital period
111.51 mins
BSTAR
0.000026029
Loading maneuver chart data...
Computing Atmospheric mass density...

Documentation

Showing up to 5 results
|